Home   Weather   Rouen   Past weeks

Flag for France Past Weather in Rouen, Upper Normandy, France — Yesterday and Last 2 Weeks

Now
57 °F

Sunny.


Feels Like: 56 °F
Forecast: 53 / 74 °F
Wind: 7 mph from South

Location: Rouen Airport

Current Time: Sep 27, 2016 at 10:49:26 AM

Latest Report: Sep 27, 2016 at 10:00 AM


Visibility: 10 mi

Pressure: 30.27 "Hg

Humidity: 77%

Dew Point: 50 °F

Location of RouenLocation

Past Weather in Rouen — Graph

°F

Rouen Temperature Yesterday

Maximum temperature yesterday: 68 °F (at 2:30 PM)
Minimum temperature yesterday: 46 °F (at 4:00 AM)
Average temperature yesterday: 56 °F

High & Low Weather Summary for the Past Weeks

 TemperatureHumidityPressure
High91 °F (Sep 13, 3:00 PM)100% (Sep 15, 4:00 AM)30.30 "Hg (Sep 15, 4:00 AM)
Low46 °F (Sep 26, 4:00 AM)36% (Sep 13, 2:30 PM)29.74 "Hg (Sep 13, 6:30 PM)
Average62 °F78%30.05 "Hg
* Reported Sep 12 9:00 AM — Sep 27 9:30 AM, Rouen, Weather by CustomWeather, © 2016

Note: Actual official high and low records may vary slightly from our data, if they occured in-between our weather recording intervals... More about our weather records

Advertising

Rouen Weather History for the Previous 24 Hours

Scroll right to see more
 ConditionsComfort  
Time TempWeatherWind HumidityBarometerVisibility
9:30 AM
Tue, Sep 27
57 °FSunny.8 mph77%30.27 "Hg10 mi
9:00 AM55 °FSunny.7 mph77%30.27 "Hg10 mi
8:30 AM55 °FSunny.7 mph77%30.27 "Hg10 mi
8:00 AM54 °FSunny.7 mph82%30.24 "Hg10 mi
7:30 AM54 °FClear.7 mph77%30.24 "Hg10 mi
7:00 AM54 °FClear.9 mph77%30.24 "Hg10 mi
6:30 AM54 °FClear.8 mph82%30.24 "Hg10 mi
6:00 AM54 °FClear.8 mph82%30.24 "Hg10 mi
5:30 AM54 °FClear.7 mph82%30.24 "Hg10 mi
5:00 AM52 °FClear.6 mph88%30.24 "Hg10 mi
4:30 AM50 °FClear.6 mph88%30.24 "Hg10 mi
4:00 AM52 °FClear.6 mph82%30.24 "Hg10 mi
3:30 AM52 °FClear.6 mph88%30.24 "Hg10 mi
3:00 AM52 °FClear.6 mph88%30.24 "Hg10 mi
2:30 AM54 °FClear.8 mph82%30.24 "Hg10 mi
2:00 AM54 °FClear.6 mph82%30.24 "Hg10 mi
1:30 AM54 °FMostly cloudy.6 mph82%30.24 "HgN/A
1:00 AM54 °FClear.6 mph82%30.24 "Hg10 mi
12:30 AM55 °FPartly cloudy.7 mph77%30.21 "HgN/A
12:00 AM55 °FClear.7 mph77%30.21 "Hg10 mi
11:30 PM
Mon, Sep 26
55 °FClear.8 mph77%30.21 "Hg10 mi
11:00 PM55 °FClear.8 mph77%30.21 "Hg10 mi
10:30 PM55 °FClear.8 mph77%30.21 "Hg10 mi
10:00 PM55 °FClear.7 mph77%30.21 "Hg10 mi
9:30 PM55 °FClear.6 mph77%30.21 "Hg10 mi
9:00 PM55 °FClear.6 mph77%30.21 "Hg10 mi
8:30 PM55 °FClear.5 mph77%30.18 "Hg10 mi
8:00 PM57 °FClear.7 mph77%30.18 "Hg10 mi
7:30 PM59 °FSunny.5 mph72%30.18 "Hg10 mi
7:00 PM63 °FSunny.5 mph64%30.21 "Hg10 mi
6:30 PM64 °FSunny.5 mph60%30.18 "Hg10 mi
6:00 PM64 °FSunny.7 mph60%30.18 "Hg10 mi
5:30 PM66 °FSunny.8 mph52%30.18 "Hg10 mi
4:30 PM68 °FBroken clouds.7 mph53%30.18 "HgN/A
4:00 PM66 °FPassing clouds.7 mph64%30.21 "HgN/A
3:30 PM66 °FPassing clouds.7 mph64%30.21 "HgN/A
3:00 PM66 °FPassing clouds.7 mph64%30.21 "HgN/A
2:30 PM68 °FBroken clouds.9 mph60%30.21 "HgN/A
2:00 PM66 °FPartly sunny.8 mph64%30.21 "HgN/A
1:30 PM64 °FPassing clouds.7 mph68%30.21 "HgN/A
1:00 PM63 °FSunny.7 mph68%30.24 "Hg10 mi
12:30 PM63 °FSunny.8 mph68%30.21 "Hg10 mi
12:00 PM63 °FPassing clouds.8 mph64%30.24 "HgN/A
11:30 AM63 °FPassing clouds.7 mph64%30.24 "HgN/A
11:00 AM59 °FSunny.6 mph72%30.24 "Hg10 mi
10:30 AM57 °FSunny.3 mph77%30.24 "Hg10 mi
10:00 AM54 °FSunny.No wind88%30.24 "Hg10 mi
Weather by CustomWeather, © 2016

See weather overviewHow to use our weather pages